Regional Weather Roundup
Issued by NWS Columbia, SC

Home | Current Version | Previous Version | Text Only | Print | Product List | Glossary On
Versions: 1 2 3 4 5 6 7 8 9 10 11 12 13 14 15 16 17 18 19 20 21 22 23 24 25 26 27 28 29 30 31 32 33 34 35 36 37 38 39 40 41 42 43 44 45 46 47 48 49 50
000
ASUS42 KCAE 261610
RWRCAE
REGIONAL WEATHER ROUNDUP
NATIONAL WEATHER SERVICE COLUMBIA SC
1100 AM EST MON JAN 26 2015

NOTE: "FAIR" INDICATES FEW OR NO CLOUDS BELOW 12,000 FEET WITH NO
SIGNIFICANT WEATHER AND/OR OBSTRUCTIONS TO VISIBILITY.

NOT ALL STATIONS ARE QUALITY CONTROLLED BY THE NATIONAL
WEATHER SERVICE. USE DATA WITH CAUTION...ESPECIALLY
DEWPOINT OBSERVATIONS.

SCZ001>056-GAZ040-063>065-077-261700-
...UPSTATE SOUTH CAROLINA...

CITY           SKY/WX    TMP DP  RH WIND       PRES   REMARKS
ANDERSON       CLOUDY    49  35  58 W17G23    29.73R
LIBERTY        MOSUNNY   51  32  48 MISG      29.70R
SPARTANBURG    MOSUNNY   54  32  43 NW10G23   29.68R
CLEMSON        PTSUNNY   52  34  50 NW15G24   29.73R
GREENVILLE     SUNNY     52  35  52 W9        29.69R
GREENWOOD      CLOUDY    52  36  54 W9G21     29.71R
GREER          PTSUNNY   51  37  58 W10       29.68R
ROCK HILL      CLOUDY    48  36  63 NW7       29.66R
CHESTER        MOSUNNY   52  37  58 W7        29.67R
LAURENS        PTSUNNY   50  43  76 W12G21    29.69R


...CENTRAL SOUTH CAROLINA...

CITY           SKY/WX    TMP DP  RH WIND       PRES   REMARKS
COLUMBIA APT   MOSUNNY   55  40  56 W20       29.67S
COLUMBIA OWENS SUNNY     54  39  57 NW14G22   29.68S
DARLINGTON     SUNNY     52  39  62 W9        29.65F
FLORENCE       SUNNY     54  41  61 W10       29.65F
MCENTIRE ANGB  MOSUNNY   54  40  59 W17       29.67S
ORANGEBURG     SUNNY     53  39  59 W15       29.68F
SUMTER SHAW    SUNNY     53  40  61 W9G18     29.64F
NEWBERRY       MOSUNNY   52  39  62 W12G18    29.71R
AIKEN          FAIR      52  41  66 W16G23    29.73R
BARNWELL       FAIR      54  41  62 W13       29.72S
CAMDEN         FAIR      50  39  66 W12       29.67S
LANCASTER      SUNNY     50  39  66 W7        29.65F
WINNSBORO      SUNNY     52  41  66 W7G16     29.66S


...EASTERN AND COASTAL SOUTH CAROLINA...

CITY           SKY/WX    TMP DP  RH WIND       PRES   REMARKS
MYRTLE BEACH   MOSUNNY   54  41  62 W9        29.68F
N MYRTLE BCH   MOSUNNY   55  42  61 W9        29.64F
CONWAY         FAIR      54  43  66 NW3       29.66S
MARION         FAIR      54  41  62 NW5       29.65F
HARTSVILLE     FAIR      54  37  54 W3        29.64F
FLORENCE       SUNNY     54  41  61 W10       29.65F
DARLINGTON     SUNNY     52  39  62 W9        29.65F
CHARLESTON APT MOSUNNY   54  41  61 NW13G23   29.69F
MOUNT PLEASANT FAIR     N/A N/A N/A NW12G18   29.69S
WALTERBORO     MOSUNNY   54  37  54 W12       29.71F
BEAUFORT       PTSUNNY   55  41  59 W21G28    29.72F


...EASTERN GEORGIA...

CITY           SKY/WX    TMP DP  RH WIND       PRES   REMARKS
AUGUSTA BUSH F MOSUNNY   54  38  54 NW21G26   29.72R
AUGUSTA DANIEL MOSUNNY   54  40  59 NW12G24   29.73R
THOMSON        PTSUNNY   54  43  68 NW16G24   29.79R
WASHINGTON     PTSUNNY   54  43  66 W18G26    29.75R
CLAXTON        FAIR      54  43  66 W23G29    29.79R
SYLVANIA       MOSUNNY   52  43  70 NW21G26   29.76S
STATESBORO     PTSUNNY   53  41  65 NW15G28   29.77S
SAVANNAH       PTSUNNY   54  38  54 W21G29    29.76S


...SOUTHERN NORTH CAROLINA...

CITY           SKY/WX    TMP DP  RH WIND       PRES   REMARKS
CHARLOTTE      PTSUNNY   48  33  56 NW5       29.66S
MONROE         MOSUNNY   52  36  54 NW10      29.63F
WADESBORO      CLOUDY    46  43  86 N3        29.64F
ROCKINGHAM       N/A     46  40  80 W3        29.64F
RUTHERFORDTON  MOSUNNY   50  34  54 NE3       29.67S
ASHEVILLE      LGT RAIN  39  34  82 N13       29.71R WCI  31

$$


USA.gov is the U.S. government's official web portal to all federal, state and local government web resources and services.